CPA313 ZJHK-VHHH

Flight info

Callsign CPA313
Flight time 0h 44m
Altitude 20699
Route K0745S0630 SAMAS9XD SAMAS A202 SIKOU/N0391F190 V571 CANTO CANTO3B
Aircraft A21N/M-SDE3FGHIRWY/LB1

Departure

Time 2026-04-21 12:47
Airport Haikou Meilan International Airport (ZJHK)

Arrival

Time 2026-04-21 13:31
Airport Hong Kong International Airport (VHHH)
Time Latitude Longitude Altitude Speed Heading
2026-04-21 12:17 19.94866 110.45682 71 ft 0 kts 180°
2026-04-21 12:36 19.94880 110.45682 71 ft 2 kts 180°
2026-04-21 12:36 19.94895 110.45682 71 ft 2 kts 194°
2026-04-21 12:36 19.94909 110.45688 71 ft 2 kts 208°
2026-04-21 12:36 19.94921 110.45697 71 ft 2 kts 224°
2026-04-21 12:37 19.94931 110.45709 72 ft 2 kts 239°
2026-04-21 12:37 19.94937 110.45724 72 ft 2 kts 254°
2026-04-21 12:37 19.94939 110.45737 72 ft 0 kts 267°
2026-04-21 12:37 19.94939 110.45744 72 ft 1 kts 269°
2026-04-21 12:42 19.94940 110.45731 72 ft 7 kts 275°
2026-04-21 12:42 19.94966 110.45633 70 ft 16 kts 300°
2026-04-21 12:42 19.95040 110.45550 68 ft 15 kts 326°
2026-04-21 12:42 19.95154 110.45533 66 ft 17 kts 356°
2026-04-21 12:43 19.95203 110.45457 64 ft 15 kts 269°
2026-04-21 12:43 19.95202 110.45332 61 ft 18 kts 270°
2026-04-21 12:43 19.95201 110.45190 59 ft 20 kts 270°
2026-04-21 12:43 19.95201 110.45036 58 ft 21 kts 269°
2026-04-21 12:44 19.95201 110.44898 58 ft 16 kts 269°
2026-04-21 12:44 19.95225 110.44823 58 ft 9 kts 335°
2026-04-21 12:44 19.95291 110.44822 58 ft 10 kts 15°
2026-04-21 12:44 19.95353 110.44868 58 ft 12 kts 51°
2026-04-21 12:45 19.95372 110.44944 58 ft 2 kts 90°
2026-04-21 12:45 19.95372 110.44945 58 ft 0 kts 90°
2026-04-21 12:46 19.95372 110.45059 58 ft 47 kts 90°
2026-04-21 12:46 19.95373 110.45663 68 ft 114 kts 90°
2026-04-21 12:46 19.95377 110.46735 57 ft 172 kts 91°
2026-04-21 12:46 19.95381 110.48074 433 ft 186 kts 92°
2026-04-21 12:47 19.95426 110.49442 1052 ft 192 kts 88°
2026-04-21 12:47 19.95827 110.50826 1717 ft 204 kts 62°
2026-04-21 12:47 19.96943 110.51762 2350 ft 217 kts 27°
2026-04-21 12:47 19.98394 110.52377 2825 ft 233 kts 23°
2026-04-21 12:48 19.99960 110.53079 3220 ft 253 kts 27°
2026-04-21 12:48 20.01590 110.53964 3747 ft 267 kts 31°
2026-04-21 12:48 20.03172 110.54939 4582 ft 267 kts 32°
2026-04-21 12:48 20.04763 110.55977 5389 ft 269 kts 32°
2026-04-21 12:49 20.06343 110.57028 6159 ft 271 kts 31°
2026-04-21 12:49 20.07952 110.58102 6909 ft 274 kts 32°
2026-04-21 12:49 20.09599 110.59110 7544 ft 279 kts 21°
2026-04-21 12:49 20.11556 110.59405 7942 ft 292 kts 350°
2026-04-21 12:50 20.13547 110.58926 8534 ft 298 kts 343°
2026-04-21 12:50 20.15584 110.58356 9195 ft 302 kts 344°
2026-04-21 12:50 20.17602 110.57809 9878 ft 304 kts 344°
2026-04-21 12:50 20.19686 110.57265 10475 ft 310 kts 345°
2026-04-21 12:51 20.21833 110.56714 10787 ft 327 kts 344°
2026-04-21 12:51 20.24116 110.56132 11069 ft 343 kts 345°
2026-04-21 12:51 20.26485 110.55531 11347 ft 358 kts 345°
2026-04-21 12:51 20.28959 110.54905 11600 ft 373 kts 344°
2026-04-21 12:52 20.31535 110.54253 11940 ft 385 kts 345°
2026-04-21 12:52 20.34154 110.53593 12513 ft 388 kts 344°
2026-04-21 12:52 20.36796 110.52927 13145 ft 390 kts 344°
2026-04-21 12:52 20.39436 110.52258 13741 ft 391 kts 344°
2026-04-21 12:53 20.42100 110.51584 14317 ft 393 kts 344°
2026-04-21 12:53 20.44814 110.51078 14825 ft 399 kts 355°
2026-04-21 12:53 20.47594 110.51465 15343 ft 406 kts 14°
2026-04-21 12:53 20.50112 110.52776 15863 ft 412 kts 33°
2026-04-21 12:54 20.52168 110.54954 16336 ft 419 kts 52°
2026-04-21 12:54 20.53481 110.57745 16816 ft 425 kts 67°
2026-04-21 12:54 20.54459 110.60690 17269 ft 428 kts 69°
2026-04-21 12:54 20.55429 110.63708 17675 ft 431 kts 69°
2026-04-21 12:55 20.56417 110.66753 18100 ft 434 kts 69°
2026-04-21 12:55 20.57407 110.69773 18529 ft 436 kts 69°
2026-04-21 12:55 20.58430 110.72861 18941 ft 439 kts 69°
2026-04-21 12:55 20.59443 110.75896 19348 ft 441 kts 69°
2026-04-21 12:56 20.60477 110.78985 19746 ft 443 kts 68°
2026-04-21 12:56 20.61523 110.82105 20135 ft 446 kts 68°
2026-04-21 12:56 20.62564 110.85212 20433 ft 448 kts 68°
2026-04-21 12:56 20.63610 110.88332 20493 ft 448 kts 68°
2026-04-21 12:57 20.64665 110.91477 20503 ft 448 kts 68°
2026-04-21 12:57 20.65719 110.94589 20508 ft 448 kts 68°
2026-04-21 12:57 20.66786 110.97730 20511 ft 448 kts 68°
2026-04-21 12:57 20.67842 111.00839 20515 ft 448 kts 68°
2026-04-21 12:58 20.68892 111.03943 20518 ft 448 kts 68°
2026-04-21 12:58 20.69955 111.07087 20520 ft 448 kts 68°
2026-04-21 12:58 20.71007 111.10204 20519 ft 449 kts 68°
2026-04-21 12:58 20.72072 111.13359 20518 ft 448 kts 68°
2026-04-21 12:59 20.73116 111.16456 20520 ft 448 kts 68°
2026-04-21 12:59 20.74180 111.19617 20521 ft 448 kts 68°
2026-04-21 12:59 20.75225 111.22723 20521 ft 448 kts 68°
2026-04-21 12:59 20.76281 111.25863 20522 ft 448 kts 68°
2026-04-21 13:00 20.77334 111.28999 20526 ft 448 kts 68°
2026-04-21 13:00 20.78386 111.32134 20528 ft 448 kts 68°
2026-04-21 13:00 20.79427 111.35239 20527 ft 449 kts 68°
2026-04-21 13:00 20.80479 111.38380 20520 ft 449 kts 68°
2026-04-21 13:01 20.81533 111.41530 20272 ft 447 kts 68°
2026-04-21 13:01 20.82577 111.44656 20039 ft 445 kts 68°
2026-04-21 13:01 20.83608 111.47739 19807 ft 444 kts 68°
2026-04-21 13:01 20.84645 111.50835 19576 ft 442 kts 68°
2026-04-21 13:02 20.85689 111.53915 19345 ft 441 kts 68°
2026-04-21 13:02 20.86729 111.56976 19114 ft 439 kts 68°
2026-04-21 13:02 20.88813 111.63120 18842 ft 438 kts 68°
2026-04-21 13:03 20.89843 111.66170 18835 ft 439 kts 68°
2026-04-21 13:03 20.90872 111.69231 18830 ft 439 kts 68°
2026-04-21 13:03 20.91902 111.72301 18831 ft 439 kts 68°
2026-04-21 13:03 20.92924 111.75346 18833 ft 438 kts 68°
2026-04-21 13:04 20.93956 111.78419 18830 ft 439 kts 68°
2026-04-21 13:04 20.94996 111.81516 18831 ft 439 kts 68°
2026-04-21 13:04 20.96027 111.84585 18831 ft 439 kts 68°
2026-04-21 13:04 20.97061 111.87664 18834 ft 439 kts 68°
2026-04-21 13:05 20.98085 111.90716 18838 ft 439 kts 68°
2026-04-21 13:05 20.99121 111.93802 18843 ft 439 kts 68°
2026-04-21 13:05 21.00147 111.96866 18850 ft 439 kts 68°
2026-04-21 13:05 21.01180 111.99947 18850 ft 439 kts 68°
2026-04-21 13:06 21.02204 112.03005 18852 ft 439 kts 68°
2026-04-21 13:06 21.03232 112.06077 18855 ft 439 kts 68°
2026-04-21 13:06 21.04267 112.09171 18855 ft 439 kts 68°
2026-04-21 13:06 21.05289 112.12231 18855 ft 439 kts 68°
2026-04-21 13:07 21.06321 112.15320 18855 ft 439 kts 68°
2026-04-21 13:07 21.07344 112.18387 18856 ft 439 kts 68°
2026-04-21 13:07 21.08359 112.21431 18855 ft 439 kts 68°
2026-04-21 13:07 21.09393 112.24536 18856 ft 439 kts 68°
2026-04-21 13:08 21.10415 112.27601 18857 ft 439 kts 68°
2026-04-21 13:08 21.11417 112.30572 18857 ft 439 kts 68°
2026-04-21 13:08 21.12468 112.33691 18856 ft 439 kts 68°
2026-04-21 13:08 21.13496 112.36755 18856 ft 439 kts 68°
2026-04-21 13:09 21.14531 112.39851 18856 ft 439 kts 68°
2026-04-21 13:09 21.15556 112.42933 18856 ft 439 kts 68°
2026-04-21 13:09 21.16578 112.46011 18855 ft 439 kts 68°
2026-04-21 13:09 21.17598 112.49087 18855 ft 439 kts 68°
2026-04-21 13:10 21.18609 112.52142 18855 ft 439 kts 68°
2026-04-21 13:10 21.19626 112.55216 18855 ft 439 kts 68°
2026-04-21 13:10 21.20654 112.58329 18855 ft 439 kts 68°
2026-04-21 13:10 21.21662 112.61385 18855 ft 439 kts 68°
2026-04-21 13:11 21.22680 112.64470 18761 ft 439 kts 68°
2026-04-21 13:11 21.23684 112.67523 18808 ft 438 kts 69°
2026-04-21 13:11 21.24694 112.70606 18832 ft 438 kts 69°
2026-04-21 13:11 21.25701 112.73677 18601 ft 437 kts 69°
2026-04-21 13:12 21.26718 112.76779 18365 ft 436 kts 69°
2026-04-21 13:12 21.27719 112.79831 18132 ft 435 kts 69°
2026-04-21 13:12 21.28718 112.82873 17900 ft 434 kts 69°
2026-04-21 13:12 21.29711 112.85905 17668 ft 433 kts 69°
2026-04-21 13:13 21.30707 112.88942 17435 ft 431 kts 69°
2026-04-21 13:13 21.31707 112.91987 17204 ft 430 kts 69°
2026-04-21 13:13 21.32692 112.94986 16975 ft 429 kts 69°
2026-04-21 13:13 21.33677 112.97983 16746 ft 427 kts 69°
2026-04-21 13:14 21.34664 113.00995 16515 ft 425 kts 69°
2026-04-21 13:14 21.35634 113.03964 16285 ft 424 kts 69°
2026-04-21 13:14 21.36607 113.06940 16062 ft 423 kts 69°
2026-04-21 13:14 21.37584 113.09927 15830 ft 421 kts 69°
2026-04-21 13:15 21.38544 113.12854 15601 ft 419 kts 69°
2026-04-21 13:15 21.39511 113.15803 15368 ft 418 kts 69°
2026-04-21 13:15 21.40471 113.18735 15168 ft 416 kts 69°
2026-04-21 13:15 21.41433 113.21681 14979 ft 415 kts 69°
2026-04-21 13:16 21.42376 113.24575 14795 ft 415 kts 70°
2026-04-21 13:16 21.43329 113.27501 14607 ft 414 kts 70°
2026-04-21 13:16 21.44265 113.30382 14422 ft 413 kts 70°
2026-04-21 13:16 21.45211 113.33295 14232 ft 412 kts 70°
2026-04-21 13:17 21.46156 113.36208 14043 ft 410 kts 70°
2026-04-21 13:17 21.47090 113.39093 13856 ft 409 kts 70°
2026-04-21 13:17 21.48014 113.41946 13669 ft 408 kts 70°
2026-04-21 13:17 21.48949 113.44830 13479 ft 407 kts 70°
2026-04-21 13:18 21.49878 113.47693 13289 ft 406 kts 70°
2026-04-21 13:18 21.50800 113.50539 13100 ft 405 kts 70°
2026-04-21 13:18 21.51724 113.53395 12910 ft 403 kts 70°
2026-04-21 13:18 21.52737 113.56162 12682 ft 402 kts 63°
2026-04-21 13:19 21.54175 113.58726 12419 ft 398 kts 50°
2026-04-21 13:19 21.56234 113.60649 11866 ft 393 kts 27°
2026-04-21 13:19 21.58745 113.61693 11399 ft 379 kts 14°
2026-04-21 13:19 21.61259 113.62427 10881 ft 369 kts 13°
2026-04-21 13:20 21.63709 113.63129 10464 ft 356 kts 13°
2026-04-21 13:20 21.66062 113.63814 10284 ft 341 kts 13°
2026-04-21 13:20 21.68371 113.64500 10147 ft 340 kts 13°
2026-04-21 13:20 21.70650 113.65186 10038 ft 340 kts 14°
2026-04-21 13:21 21.72928 113.65891 9923 ft 340 kts 14°
2026-04-21 13:21 21.75199 113.66598 9514 ft 339 kts 14°
2026-04-21 13:21 21.77446 113.67294 9214 ft 332 kts 14°
2026-04-21 13:21 21.79665 113.67981 8866 ft 327 kts 14°
2026-04-21 13:22 21.81848 113.68655 8507 ft 324 kts 14°
2026-04-21 13:22 21.83995 113.69316 8118 ft 322 kts 15°
2026-04-21 13:22 21.86158 113.69981 7749 ft 321 kts 15°
2026-04-21 13:22 21.88316 113.70645 7393 ft 322 kts 15°
2026-04-21 13:23 21.90452 113.71302 7044 ft 321 kts 15°
2026-04-21 13:23 21.92611 113.71967 6688 ft 320 kts 15°
2026-04-21 13:23 21.94756 113.72628 6344 ft 319 kts 15°
2026-04-21 13:23 21.96905 113.73290 5997 ft 318 kts 16°
2026-04-21 13:24 21.99029 113.73946 5661 ft 316 kts 16°
2026-04-21 13:24 22.01127 113.74593 5320 ft 315 kts 16°
2026-04-21 13:24 22.03239 113.75245 5018 ft 310 kts 16°
2026-04-21 13:24 22.05303 113.75882 4642 ft 303 kts 16°
2026-04-21 13:25 22.07284 113.76493 4334 ft 288 kts 16°
2026-04-21 13:25 22.09176 113.77074 4064 ft 279 kts 15°
2026-04-21 13:25 22.11056 113.77261 3850 ft 272 kts 351°
2026-04-21 13:25 22.12830 113.76648 3579 ft 265 kts 334°
2026-04-21 13:26 22.14497 113.75785 3304 ft 261 kts 332°
2026-04-21 13:26 22.16089 113.74934 3092 ft 254 kts 332°
2026-04-21 13:26 22.17658 113.74113 3017 ft 243 kts 333°
2026-04-21 13:26 22.19178 113.73339 2967 ft 240 kts 333°
2026-04-21 13:27 22.20708 113.72568 2860 ft 240 kts 333°
2026-04-21 13:27 22.22195 113.71825 2833 ft 231 kts 334°
2026-04-21 13:27 22.23729 113.71400 2603 ft 227 kts
2026-04-21 13:27 22.25123 113.72031 2353 ft 210 kts 44°
2026-04-21 13:28 22.26129 113.73161 2150 ft 209 kts 52°
2026-04-21 13:28 22.27094 113.74320 1880 ft 208 kts 51°
2026-04-21 13:28 22.28041 113.75459 1605 ft 200 kts 61°
2026-04-21 13:28 22.28590 113.76785 1480 ft 188 kts 76°
2026-04-21 13:29 22.28969 113.78134 1490 ft 192 kts 77°
2026-04-21 13:29 22.29374 113.79532 1492 ft 194 kts 76°
2026-04-21 13:29 22.29807 113.80911 1410 ft 195 kts 75°
2026-04-21 13:29 22.30252 113.82285 1161 ft 191 kts 75°
2026-04-21 13:30 22.30670 113.83575 905 ft 176 kts 74°
2026-04-21 13:30 22.31055 113.84771 664 ft 160 kts 75°
2026-04-21 13:30 22.31411 113.85887 482 ft 157 kts 75°
2026-04-21 13:30 22.31765 113.86991 284 ft 154 kts 74°
2026-04-21 13:31 22.32112 113.88071 122 ft 150 kts 73°
2026-04-21 13:31 22.32443 113.89116 36 ft 138 kts 69°
2026-04-21 13:31 22.32708 113.89930 35 ft 90 kts 71°
2026-04-21 13:31 22.32861 113.90402 35 ft 48 kts 71°
2026-04-21 13:32 22.32935 113.90672 35 ft 28 kts 82°
2026-04-21 13:32 22.32924 113.90882 35 ft 27 kts 101°
2026-04-21 13:32 22.32895 113.91063 35 ft 19 kts 84°
2026-04-21 13:32 22.32937 113.91202 35 ft 19 kts 71°
2026-04-21 13:33 22.32983 113.91344 35 ft 20 kts 71°
2026-04-21 13:33 22.33030 113.91490 35 ft 20 kts 71°
2026-04-21 13:33 22.33078 113.91638 35 ft 21 kts 71°